AMOS-17

Last updated on Wed Sep 17 2025 00:02:50 GMT+0000 (Coordinated Universal Time)

1 44479U 19050A 25259.58711203 .00000000 00000+0 00000+0 0 9991 2 44479 0.0203 132.2939 0002277 53.7745 38.0620 1.00270077 22448
UTC large
Height (km)
Speed (km/s)
/
Latitude / Longitude
Inclination (degrees)
Orbital Period (minutes)
Azimuth
Elevation
Range (km)
Doppler Factor

Next 0 passes for location: London (51.5072 / 0.1276)

Sorry there are no passes over London.